Tiempo cada hora Abrosimovo

Hoy, 27 Octubre, Martes

Tiempo Temperatura Precipitaciones Viento Presión Humedad
00:00 +9°C° 0 mm 5 mps 751 mmHg 88%
01:00 +8°C° 0 mm 4 mps 751 mmHg 88%
02:00 +8°C° 0 mm 4 mps 751 mmHg 88%
03:00 +8°C° 0 mm 5 mps 751 mmHg 88%
04:00 +8°C° 0 mm 5 mps 751 mmHg 87%
05:00 +7°C° 0 mm 5 mps 751 mmHg 86%
06:00 +7°C° 0 mm 5 mps 751 mmHg 87%
07:00 +7°C° 0 mm 5 mps 751 mmHg 87%
08:00 +7°C° 0 mm 5 mps 751 mmHg 87%
09:00 +8°C° 0 mm 5 mps 751 mmHg 84%
10:00 +9°C° 0 mm 5 mps 751 mmHg 81%
11:00 +10°C° 0 mm 5 mps 751 mmHg 78%
12:00 +10°C° 0 mm 5 mps 751 mmHg 77%
13:00 +12°C° 0 mm 5 mps 751 mmHg 76%
14:00 +12°C° 0 mm 5 mps 751 mmHg 75%
15:00 +12°C° 0 mm 5 mps 751 mmHg 78%
16:00 +10°C° 0 mm 5 mps 751 mmHg 81%
17:00 +10°C° 0 mm 4 mps 751 mmHg 84%
18:00 +10°C° 0 mm 4 mps 751 mmHg 85%
19:00 +10°C° 0 mm 4 mps 751 mmHg 86%
20:00 +9°C° 0 mm 5 mps 751 mmHg 87%
21:00 +9°C° 0 mm 5 mps 750 mmHg 87%
22:00 +9°C° 0 mm 5 mps 750 mmHg 87%
23:00 +9°C° 0 mm 5 mps 750 mmHg 87%

Mañana, 28 Octubre, Miércoles

Tiempo Temperatura Precipitaciones Viento Presión Humedad
00:00 +9°C° 0 mm 5 mps 750 mmHg 88%
01:00 +9°C° 0 mm 5 mps 750 mmHg 88%
02:00 +9°C° 0 mm 5 mps 750 mmHg 89%
03:00 +9°C° 0 mm 5 mps 750 mmHg 90%
04:00 +10°C° 0 mm 4 mps 750 mmHg 91%
05:00 +10°C° 0 mm 4 mps 749 mmHg 92%
06:00 +10°C° 0.2 mm 4 mps 750 mmHg 92%
07:00 +10°C° 0.2 mm 3 mps 750 mmHg 93%
08:00 +10°C° 0.2 mm 3 mps 751 mmHg 93%
09:00 +10°C° 0 mm 3 mps 751 mmHg 92%
10:00 +11°C° 0 mm 3 mps 752 mmHg 91%
11:00 +11°C° 0 mm 3 mps 752 mmHg 90%
12:00 +11°C° 0 mm 3 mps 752 mmHg 89%
13:00 +13°C° 0 mm 2 mps 752 mmHg 88%
14:00 +13°C° 0 mm 2 mps 752 mmHg 87%
15:00 +13°C° 0 mm 2 mps 752 mmHg 88%
16:00 +12°C° 0 mm 2 mps 752 mmHg 90%
17:00 +12°C° 0 mm 2 mps 752 mmHg 91%
18:00 +12°C° 0 mm 2 mps 752 mmHg 91%
19:00 +11°C° 0 mm 3 mps 752 mmHg 91%
20:00 +11°C° 0 mm 3 mps 752 mmHg 90%
21:00 +11°C° 0 mm 3 mps 751 mmHg 91%
22:00 +11°C° 0 mm 4 mps 751 mmHg 91%
23:00 +11°C° 0 mm 4 mps 751 mmHg 91%

Pasado mañana, 29 Octubre, Jueves

Tiempo Temperatura Precipitaciones Viento Presión Humedad
00:00 +11°C° 0 mm 4 mps 751 mmHg 92%
01:00 +11°C° 0 mm 3 mps 751 mmHg 92%
02:00 +11°C° 0 mm 3 mps 751 mmHg 93%
03:00 +11°C° 0.2 mm 3 mps 751 mmHg 93%
04:00 +11°C° 0.2 mm 3 mps 750 mmHg 94%
05:00 +11°C° 0.2 mm 3 mps 750 mmHg 94%
06:00 +11°C° 0 mm 3 mps 750 mmHg 94%
07:00 +11°C° 0 mm 3 mps 750 mmHg 94%
08:00 +11°C° 0 mm 3 mps 750 mmHg 94%
09:00 +11°C° 0.2 mm 3 mps 750 mmHg 93%
10:00 +11°C° 0.2 mm 3 mps 750 mmHg 93%
11:00 +11°C° 0.2 mm 3 mps 750 mmHg 92%
12:00 +11°C° 0.2 mm 3 mps 750 mmHg 92%
13:00 +11°C° 0.2 mm 3 mps 750 mmHg 92%
14:00 +11°C° 0.2 mm 3 mps 750 mmHg 92%
15:00 +12°C° 0.3 mm 2 mps 749 mmHg 93%
16:00 +12°C° 0.3 mm 2 mps 749 mmHg 93%
17:00 +10°C° 0.3 mm 2 mps 749 mmHg 94%
18:00 +10°C° 0.1 mm 2 mps 749 mmHg 95%
19:00 +10°C° 0.1 mm 2 mps 749 mmHg 95%
20:00 +10°C° 0.1 mm 2 mps 749 mmHg 96%
21:00 +10°C° 0 mm 1 mps 749 mmHg 96%
22:00 +10°C° 0 mm 1 mps 749 mmHg 97%
23:00 +10°C° 0 mm 1 mps 749 mmHg 97%

30 Octubre, Viernes

Tiempo Temperatura Precipitaciones Viento Presión Humedad
00:00 +9°C° 0 mm 1 mps 749 mmHg 97%
01:00 +9°C° 0 mm 1 mps 749 mmHg 97%
02:00 +8°C° 0 mm 1 mps 749 mmHg 96%
03:00 +8°C° 0 mm 1 mps 749 mmHg 96%
04:00 +8°C° 0 mm 1 mps 749 mmHg 96%
05:00 +8°C° 0 mm 1 mps 749 mmHg 96%
06:00 +8°C° 0 mm 1 mps 749 mmHg 95%
07:00 +8°C° 0 mm 1 mps 749 mmHg 95%
08:00 +8°C° 0 mm 1 mps 749 mmHg 95%
09:00 +9°C° 0 mm 1 mps 749 mmHg 91%
10:00 +10°C° 0 mm 1 mps 749 mmHg 87%
11:00 +10°C° 0 mm 1 mps 749 mmHg 84%
12:00 +11°C° 0 mm 1 mps 750 mmHg 84%
13:00 +11°C° 0 mm 1 mps 750 mmHg 84%
14:00 +11°C° 0 mm 1 mps 750 mmHg 83%
15:00 +11°C° 0.1 mm 1 mps 750 mmHg 86%
16:00 +10°C° 0.1 mm 1 mps 750 mmHg 89%
17:00 +10°C° 0.1 mm 1 mps 750 mmHg 91%
18:00 +9°C° 0.1 mm 1 mps 750 mmHg 92%
19:00 +9°C° 0.1 mm 1 mps 751 mmHg 92%
20:00 +9°C° 0.1 mm 1 mps 751 mmHg 92%
21:00 +9°C° 0 mm 1 mps 751 mmHg 92%
22:00 +9°C° 0 mm 1 mps 751 mmHg 93%
23:00 +8°C° 0 mm 1 mps 752 mmHg 94%

31 Octubre, Sábado

Tiempo Temperatura Precipitaciones Viento Presión Humedad
00:00 +8°C° 0 mm 1 mps 752 mmHg 94%
01:00 +7°C° 0 mm 1 mps 752 mmHg 95%
02:00 +7°C° 0 mm 1 mps 753 mmHg 96%
03:00 +7°C° 0 mm 1 mps 753 mmHg 96%
04:00 +7°C° 0 mm 1 mps 754 mmHg 96%
05:00 +7°C° 0 mm 1 mps 754 mmHg 96%
06:00 +7°C° 0 mm 1 mps 754 mmHg 96%
07:00 +6°C° 0 mm 1 mps 755 mmHg 97%
08:00 +6°C° 0 mm 1 mps 755 mmHg 97%
09:00 +7°C° 0 mm 1 mps 756 mmHg 93%
10:00 +9°C° 0 mm 1 mps 757 mmHg 89%
11:00 +10°C° 0 mm 1 mps 757 mmHg 85%
12:00 +10°C° 0 mm 1 mps 757 mmHg 84%
13:00 +11°C° 0 mm 1 mps 758 mmHg 82%
14:00 +11°C° 0 mm 1 mps 758 mmHg 80%
15:00 +10°C° 0 mm 1 mps 758 mmHg 84%
16:00 +9°C° 0 mm 1 mps 759 mmHg 89%
17:00 +8°C° 0 mm 1 mps 759 mmHg 93%
18:00 +7°C° 0 mm 1 mps 759 mmHg 94%
19:00 +7°C° 0 mm 1 mps 760 mmHg 94%
20:00 +7°C° 0 mm 1 mps 760 mmHg 95%
21:00 +6°C° 0 mm 1 mps 760 mmHg 95%
22:00 +5°C° 0 mm 0 mps 760 mmHg 95%
23:00 +5°C° 0 mm 0 mps 761 mmHg 95%

1 Noviembre, Domingo

Tiempo Temperatura Precipitaciones Viento Presión Humedad
00:00 +5°C° 0 mm 0 mps 761 mmHg 96%
01:00 +5°C° 0 mm 0 mps 761 mmHg 96%
02:00 +4°C° 0 mm 0 mps 761 mmHg 96%
03:00 +5°C° 0 mm 1 mps 761 mmHg 96%
04:00 +5°C° 0 mm 1 mps 761 mmHg 96%
05:00 +5°C° 0 mm 1 mps 761 mmHg 97%
06:00 +5°C° 0 mm 1 mps 761 mmHg 97%
07:00 +5°C° 0 mm 1 mps 761 mmHg 97%
08:00 +5°C° 0 mm 1 mps 761 mmHg 97%
09:00 +5°C° 0 mm 2 mps 762 mmHg 95%
10:00 +5°C° 0 mm 2 mps 762 mmHg 93%
11:00 +6°C° 0 mm 2 mps 762 mmHg 91%
12:00 +6°C° 0 mm 2 mps 761 mmHg 90%
13:00 +6°C° 0 mm 2 mps 761 mmHg 89%
14:00 +7°C° 0 mm 2 mps 761 mmHg 88%
15:00 +6°C° 0 mm 2 mps 761 mmHg 89%
16:00 +6°C° 0 mm 2 mps 761 mmHg 91%
17:00 +6°C° 0 mm 2 mps 761 mmHg 92%
18:00 +5°C° 0 mm 2 mps 761 mmHg 92%
19:00 +5°C° 0 mm 2 mps 761 mmHg 93%
20:00 +5°C° 0 mm 2 mps 761 mmHg 94%
21:00 +4°C° 0 mm 2 mps 761 mmHg 94%
22:00 +4°C° 0 mm 2 mps 761 mmHg 94%
23:00 +4°C° 0 mm 2 mps 762 mmHg 95%
Mostrar más

Necesitamos Su Consentimiento

Meteoprog y nuestros Proveedores de Servicios pueden almacenar y acceder a sus datos personales como cookies, identificadores de dispositivo u otras tecnologías similares de su dispositivo y procesar dichos datos para personalizar contenido y anuncios, además de ofrecer funciones de redes sociales y analizar el tráfico.

  • Almacenar y/o acceder a información en su dispositivo

    Se puede almacenar o acceder a cookies, identificadores de dispositivo u otra información de su dispositivo para los fines anteriormente indicados.

  • Anuncios y contenido personalizados, medición de anuncios y contenido, percepciones del público, y desarrollo de productos

    Los anuncios y el contenido pueden personalizarse en base a su perfil. Se pueden añadir más datos para personalizar mejor los anuncios y contenidos. Se puede medir el rendimiento de los anuncios y contenidos. Se puede obtener la percepción sobre el público que ha visto los anuncios y contenidos. Dichos datos pueden usarse para desarrollar o mejorar la experiencia del usuario, sistemas y software.

Al hacer clic en ‘Estoy De Acuerdo’ usted permitirá el uso de las cookies, identificadores de dispositivo, balizas web u otras tecnologías similares indicadas. Su configuración puede cambiarse desde el navegador de su dispositivo.

Para ciertos fines, los intereses legítimos pueden ser considerados por encima del consentimiento. Puede leer más sobre ello en nuestra Política de Privacidad y Cookies.